User: anonymous   Login
Location: D�derode
(51.8092°N, 10.1065°E)
Time: 06:56:59
(UTC+00:00)
Language:

Cosmos 1515 Rocket - Orbit

View from above orbital plane
View from above orbital plane
View from above satellite
View from above satellite

Ground track
Ground track

The orbit data is extracted from the following two-line orbital elements,

1 14552U 83122B   21057.92445030  .00000087  00000-0  76379-5 0  9997
2 14552  82.5214 251.9644 0017910  29.8013 330.4218 14.83538025988345
Epoch (UTC): 26 February 2021 22:11:12
Eccentricity: 0.0017910
inclination: 82.5214°
perigee height: 605 km
apogee height: 631 km
right ascension of ascending node: 251.9644°
argument of perigee: 29.8013°
revolutions per day: 14.83538025
mean anomaly at epoch: 330.4218°
orbit number at epoch: 98834

The dashed part of the orbit path shows where the satellite is in the earth's shadow,  

DLR